Tracking 35055 objects as of 18-Aug-2026
HD Live streaming from Space Station
objects crossing your sky now

TEVEL2-9

Track TEVEL2-9 now!
10-day predictions
TEVEL2-9 is classified as:


NORAD ID: 63237
Int'l Code: 2025-052AD
Launch date: March 15, 2025
Source: (TBD)
Launch site: AIR FORCE WESTERN TEST RANGE (AFWTR)

Uplink (MHz): 145.970
Downlink (MHz): 436.400
Beacon (MHz):
Mode: 9k6 BPSK FM
Call sign: TVL2-9-1
Status: Inactive

Your satellite tracking list
Your tracking list is empty




NASA's NSSDC Master Catalog

Two Line Element Set (TLE):
1 63237U 25052AD  26229.26079875  .00011411  00000-0  35341-3 0  9997
2 63237  97.3840 124.5168 0003709 294.0981  65.9873 15.33609246 79387
Source of the keplerian elements: AFSPC